Regional Weather Roundup
Issued by NWS

Home | Current Version | Previous Version | Graphics & Text | Print | Product List | Glossary On
Versions: 1 2 3 4 5 6 7 8 9 10 11 12 13 14 15 16 17 18 19 20 21 22 23 24 25 26 27 28 29 30 31 32 33 34 35 36 37 38 39 40 41 42 43 44 45 46 47 48 49 50
721
ASUS43 KFSD 240802
RWRSD

WEATHER ROUNDUP FOR SOUTH DAKOTA
NATIONAL WEATHER SERVICE SIOUX FALLS SD
300 AM CDT MON APR 24 2017

NOTE: "FAIR" INDICATES FEW OR NO CLOUDS BELOW 12,000 FEET WITH NO
SIGNIFICANT WEATHER AND/OR OBSTRUCTIONS TO VISIBILITY.


SDZ001>005-009-010-012>017-240900-
NORTHWEST AND NORTH CENTRAL SOUTH DAKOTA

CITY           SKY/WX    TMP DP  RH WIND       PRES   REMARKS
BUFFALO          N/A     35  34  96 NE15      29.56F WCI  25
FAITH            N/A     34  34 100 NE23G33   29.54F WCI  22
MOBRIDGE       LGT RAIN  38  33  82 N10       29.68R
$$

SDZ012>016-024>037-041>051-057-063-072>074-240900-
SOUTHWEST AND SOUTH CENTRAL SOUTH DAKOTA

CITY           SKY/WX    TMP DP  RH WIND       PRES   REMARKS
RAPID CTY ARPT CLOUDY    39  37  92 N3        29.58F
PIERRE         LGT RAIN  42  37  82 NW22G30   29.57R
CUSTER         CLOUDY    51  35  54 W12G20    29.62F
ELLSWORTH AFB  PTCLDY    41  41 100 S8        29.57F
PHILIP         CLOUDY    40  36  86 N12       29.58S
PINE RIDGE     PTCLDY    48  43  82 NW3       29.58S
SPEARFISH      FAIR      46  45  93 CALM      29.58R
WINNER         FAIR      59  33  37 S21       29.56F
$$

SDZ004>011-016>023-039-040-240900-
NORTHEAST SOUTH DAKOTA

CITY           SKY/WX    TMP DP  RH WIND       PRES   REMARKS
ABERDEEN       MOCLDY    42  37  82 NW8       29.61F
WATERTOWN      CLOUDY    51  34  52 S14       29.66F
BROOKINGS      MOCLDY    54  33  45 S21G31    29.70
SISSETON         N/A     41  38  89 E3        29.68F
$$

SDZ017-020-022-023-036>040-048>070-240900-
SOUTHEAST SOUTH DAKOTA

CITY           SKY/WX    TMP DP  RH WIND       PRES   REMARKS
SIOUX FALLS    MOCLDY    55  35  47 S17       29.73F
HURON          CLOUDY    55  36  48 SE12      29.61F
CHAMBERLAIN    CLOUDY    60  36  39 SE18G28   29.57F
MITCHELL       CLOUDY    56  36  47 S16       29.64F
YANKTON        CLOUDY    57  32  38 S18G25    29.71F
$$

ABBREVIATIONS USED IN REMARKS
   TC - TEMPERATURE IN CELSIUS
  WCI - WIND CHILL INDEX
   HX - HEAT INDEX
  VSB - VISIBILITY





USA.gov is the U.S. government's official web portal to all federal, state and local government web resources and services.